Location: Mahannah Oil Field
(37.4664°N, 96.6003°W)
Time: 15:43:53
(UTC+00:00)

Vanguard 2 Rocket - Pass Details

Date: 30 January 2021
Orbit: 554 x 3325 km, 32.9° (Epoch: 06 March)

Event Time Altitude Azimuth Distance (km) Brightness Sun altitude
Rises 22:30:36 0° 269° (W) 6,822 12.4 12.9°
Reaches altitude 10° 22:35:42 10° 268° (W) 5,470 12.1 12.0°
Maximum altitude 22:50:29 68° 190° (S) 1,889 8.9 9.6°
Drops below altitude 10° 22:58:38 10° 109° (ESE) 3,170 9.3 8.2°
Sets 23:00:50 0° 106° (ESE) 3,875 9.7 7.8°
